Regional Weather Roundup
Issued by NWS Portland, ME

Home | Current Version | Previous Version | Text Only | Print | Product List | Glossary On
Versions: 1 2 3 4 5 6 7 8 9 10 11 12 13 14 15 16 17 18 19 20 21 22 23 24 25 26 27 28 29 30 31 32 33 34 35 36 37 38 39 40 41 42 43 44 45 46 47 48 49 50
000
ASUS41 KGYX 211610
RWRGYX
WEATHER ROUNDUP FOR MAINE AND NEW HAMPSHIRE
NATIONAL WEATHER SERVICE GRAY ME
1100 AM EST TUE FEB 21 2017

MEZ002-005-006-010-012-015-018-020-021-024-026-027-029-211700-
MAINE

CITY           SKY/WX    TMP DP  RH WIND       PRES   REMARKS
PORTLAND       MOSUNNY   33  16  49 E5        30.35F
SANFORD        SUNNY     36  14  40 SW3       30.34F
BAR HARBOR     SUNNY     29  11  47 VRB3      30.34F
WISCASSET      SUNNY     36  11  35 SE3       30.36F
ROCKLAND       SUNNY     34  12  40 VRB3      30.35F
FRYEBURG       SUNNY     35  15  44 CALM      30.31F
LEWISTONAUBURN SUNNY     34  13  41 E3        30.33F
AUGUSTA        SUNNY     33   8  35 CALM      30.34F
WATERVILLE     SUNNY     34  10  37 CALM      30.31F
BANGOR         MOSUNNY   28   9  44 CALM      30.33F
GREENVILLE       N/A     29   7  39 S5        30.23S
MILLINOCKET    SUNNY     28   9  44 E6        30.31F
HOULTON        SUNNY     25  10  53 CALM      30.29F
PRESQUE ISLE   SUNNY     28  11  48 E6        30.29F
FRENCHVILLE    SUNNY     20   7  57 CALM      30.23F
CARIBOU        SUNNY     21  11  65 SE3       30.27F
$$

NHZ002-005-008-009-011-012-014-211700-
NEW HAMPSHIRE

CITY           SKY/WX    TMP DP  RH WIND       PRES   REMARKS
PORTSMOUTH     PTSUNNY   35  20  52 VRB3      30.34F
ROCHESTER      SUNNY     35  15  44 SE5       30.33F
NASHUA         SUNNY     38  18  44 S7        30.35F
MANCHESTER     MOSUNNY   38  16  40 VRB3      30.33F
CONCORD        SUNNY     36  17  46 S7        30.33F
LACONIA        SUNNY     35  14  42 MISG      30.31F
PLYMOUTH       FAIR      35  13  41 NE3       30.31F
BERLIN         SUNNY     29  12  49 VRB3      30.25F
WHITEFIELD     CLOUDY    32  13  45 CALM      30.25F
JAFFREY        SUNNY     37  11  34 S6        30.29F
KEENE          MOSUNNY   33  17  51 CALM      30.33F
LEBANON        MOSUNNY   32  16  51 CALM      30.30F
MT WASHINGTON  MOSUNNY   32   3  29 S14         N/A
$$

VTZ005-007-008-211700-
VERMONT

CITY           SKY/WX    TMP DP  RH WIND       PRES   REMARKS
ST JOHNSBURY     N/A     28  14  55 MISG      30.27F
MONTPELIER     MOSUNNY   32  13  45 S9        30.29F
BURLINGTON     PTSUNNY   36  13  38 S18G25    30.22F
$$

MAZ007-012-024-CTZ003-RIZ002-NYZ038-NYZ072-211700-
SOUTHERN NEW ENGLAND AND NY

CITY           SKY/WX    TMP DP  RH WIND       PRES   REMARKS
BOSTON         MOSUNNY   39  26  59 NE7       30.37F
WORCESTER      SUNNY     37  10  32 SW7       30.31F
NANTUCKET      SUNNY     43  25  49 N13       30.34F
PROVIDENCE     PTSUNNY   41  19  41 CALM      30.37S
HARTFORD       CLOUDY    37  14  38 CALM      30.36F
ALBANY         CLOUDY    35  15  44 S10       30.31F
NEW YORK CITY  PTSUNNY   44  22  41 NE10      30.36F
$$

ANZ081-ANZ082-ANZ150-NHZ014-MEZ023>029-211700-
COASTAL MARINE OBSERVATIONS

STATION/POSITION TIME  TEMP    WIND        PRES    WAVE
                       AIR SEA DIR/SP/G            HT/PER
                 (UTC) (F)     (DEG/KT/KT) (MB)    (FT/S)
MOUNT DESERT ROC 1600   28                 1027.5F
MATINICUS ROCK   1600   30      40/  6/  7 1027.3F
ISLE OF SHOALS   1600   35      80/  5/  6 1027.6F
JEFFREYS LEDGE   1506      44                N/A     4/ 7
CASHES LEDGE BUO 1550   35 42              1028.5R   3/ 6
GEORGES BANK BUO 1550   36 43              1025.2S   7/ 7
$$

.............KEY..............
   WCI - WIND CHILL
   TC  - TEMPERATURE IN CELSIUS
   VSB - VISIBILITY IN MILES
   HX  - HEAT INDEX
   FAIR- INDICATES FEW OR NO CLOUDS BELOW 12,000 FT, WITH NO
         SIGNIFICANT WEATHER AND/OR OBSTRUCTIONS TO VISIBILITY.






USA.gov is the U.S. government's official web portal to all federal, state and local government web resources and services.